Lorain / Elyria, OH

11:49 PM EDT on May 20, 2018 (GMT -0400)
Lorain County Regional

Weather History for KLPR - March, 2013

Change the Weather History Date:

Tuesday, March 5, 2013

  Actual Average (KCLE) Record (KCLE)
Temperature  
Mean Temperature 29 °F -  
Max Temperature 37 °F 43 °F 81 °F (1983)
Min Temperature 21 °F 26 °F -2 °F (1873)
Degree Days  
Heating Degree Days 36    
Moisture  
Dew Point 24 °F    
Average Humidity 79    
Maximum Humidity 91    
Minimum Humidity 61    
Precipitation  
Precipitation 0.00 in - - ()
Sea Level Pressure  
Sea Level Pressure 29.92 in    
Wind  
Wind Speed 7 mph (ENE)    
Max Wind Speed 22 mph    
Max Gust Speed 26 mph    
Visibility 9 miles    
Events      
Averages and records for this station are not official NWS values.
T = Trace of Precipitation, MM = Missing Value Source: NWS Daily Summary

Daily Weather History Graph

Daily Weather History Graph

Search for Another Location

Airport or City:

Astronomy

Mar. 05, 2013 Rise Set
Actual Time 6:56 AM EST 6:24 PM EST
Civil Twilight 6:28 AM EST 6:52 PM EST
Nautical Twilight 5:56 AM EST 7:24 PM EST
Astronomical Twilight 5:24 AM EST 7:56 PM EST
Moon 2:10 AM EST (3/5) 11:59 AM EST (3/5)
Length of Visible Light 12h 23m
Length of Day
11h 27m
Last Quarter, 41% of the Moon is Illuminated
Mar 5
Last Quarter
Mar 11
New
Mar 19
First Quarter
Mar 27
Full
Apr 3
Last Quarter

Hourly Weather History & Observations

Time (EST) Temp. Windchill Dew Point Humidity Pressure Visibility Wind Dir Wind Speed Gust Speed Precip Events Conditions
12:53 AM 25.0 °F - 19.9 °F 81% 30.13 in 10.0 mi Calm Calm - N/A   Clear
2:53 AM 24.1 °F - 21.9 °F 91% 30.12 in 5.0 mi Calm Calm - N/A   Clear
4:53 AM 24.1 °F 19.7 °F 19.9 °F 84% 30.09 in 8.0 mi East 3.5 mph - N/A   Clear
5:53 AM 23.0 °F 15.8 °F 19.9 °F 88% 30.09 in 7.0 mi East 5.8 mph - N/A   Clear
6:53 AM 21.9 °F 14.5 °F 19.0 °F 89% 30.08 in 6.0 mi East 5.8 mph - N/A   Clear
8:53 AM 26.1 °F 18.4 °F 19.9 °F 78% 30.06 in 10.0 mi ESE 6.9 mph - N/A   Clear
9:53 AM 28.9 °F 22.8 °F 21.0 °F 72% 30.05 in 10.0 mi SE 5.8 mph - N/A   Clear
10:53 AM 30.9 °F 25.2 °F 21.0 °F 67% 30.03 in 10.0 mi SE 5.8 mph - N/A   Clear
11:53 AM 34.0 °F 29.8 °F 21.9 °F 61% 30.00 in 10.0 mi Variable 4.6 mph - N/A   Clear
12:53 PM 37.0 °F 31.6 °F 27.0 °F 67% 29.96 in 10.0 mi ENE 6.9 mph - N/A   Clear
1:53 PM 37.0 °F 28.9 °F 28.0 °F 70% 29.90 in 10.0 mi ENE 12.7 mph - N/A   Clear
2:53 PM 35.1 °F 25.9 °F 27.0 °F 72% 29.87 in 10.0 mi NE 13.8 mph - N/A   Clear
3:53 PM 34.0 °F 24.2 °F 27.0 °F 75% 29.85 in 10.0 mi NE 15.0 mph - N/A   Clear
4:53 PM 32.0 °F 22.5 °F 26.1 °F 79% 29.83 in 10.0 mi ENE 12.7 mph - N/A   Scattered Clouds
5:53 PM 30.9 °F 21.7 °F 26.1 °F 82% 29.79 in 10.0 mi ENE 11.5 mph 21.9 mph N/A   Overcast
6:53 PM 30.9 °F 21.2 °F 26.1 °F 82% 29.78 in 10.0 mi ENE 12.7 mph - N/A   Overcast
7:53 PM 32.0 °F 22.5 °F 27.0 °F 82% 29.75 in 10.0 mi ENE 12.7 mph - N/A   Overcast
8:53 PM 30.9 °F 19.4 °F 26.1 °F 82% 29.73 in 10.0 mi ENE 17.3 mph 24.2 mph N/A   Overcast
9:53 PM 30.9 °F 18.1 °F 26.1 °F 82% 29.71 in 10.0 mi ENE 21.9 mph 26.5 mph N/A   Mostly Cloudy
10:53 PM 30.9 °F 18.7 °F 27.0 °F 85% 29.70 in 10.0 mi ENE 19.6 mph 25.3 mph 0.00 in   Partly Cloudy
11:53 PM 30.9 °F 19.8 °F 27.0 °F 85% 29.70 in 10.0 mi ENE 16.1 mph 23.0 mph N/A   Clear